Regional Weather Roundup
Issued by NWS Grand Forks, ND

Home | Current Version | Previous Version | Text Only | Print | Product List | Glossary On
Versions: 1 2 3 4 5 6 7 8 9 10 11 12 13 14 15 16 17 18 19 20 21 22 23 24 25 26 27 28 29 30 31 32 33 34 35 36 37 38 39 40 41 42 43 44 45 46 47 48 49 50
000
ASUS43 KFGF 180831
RWRFGF
PRAIRIE TO PINES  WEATHER ROUNDUP
NATIONAL WEATHER SERVICE EASTERN NORTH DAKOTA/GRAND FORKS ND
300 AM CDT FRI AUG 18 2017

 **SATELLITE DATA USED TO AUGMENT SKY COVER AT AUTOMATED STATIONS**
 *****  WEATHER ACROSS EASTERN NORTH DAKOTA  *****

CITY           SKY/WX    TMP DP  RH WIND       PRES   REMARKS
GRAND FORKS    FAIR      60  59  96 S6        29.83R
GRAND FRKS AFB NOT AVBL
DEVILS LAKE    FAIR      67  59  75 CALM      29.87R
FARGO          FAIR      62  59  90 CALM      29.85S
WAHPETON ARPT  CLOUDY    61  57  88 CALM      29.87S
$$

 ***** WEATHER ACROSS CENTRAL AND WESTERN NORTH DAKOTA  *****

CITY           SKY/WX    TMP DP  RH WIND       PRES   REMARKS
BISMARCK       FAIR      64  58  80 NW9       29.87R
MINOT          MOCLDY    63  57  81 S5        29.88S
JAMESTOWN      RAIN      63  60  90 VRB7      29.91R FOG
MINOT AFB      MOCLDY    61  58  91 W5        29.88R
GARRISON         N/A     61  54  77 NE15G24   29.88R
WILLISTON      FAIR      57  55  93 CALM      29.94R
DICKINSON      FAIR      56  49  77 NW7       29.93S
HETTINGER      MOCLDY    55  47  74 NW3       29.96R
$$

 *****  OTHER AIRPORT OBSERVATIONS IN OUR AREA  *****

CITY           SKY/WX    TMP DP  RH WIND       PRES   REMARKS
WALHALLA       FAIR      55  55 100 CALM      29.82S
GRAFTON AIRPOR FAIR      55  55 100 SW5       29.85R
VALLEY CITY AR   N/A     64  64 100 SW14G21   29.89R
CANDO          PTSUNNY   61  61 100 CALM      29.88S
CAVALIER APRT  FAIR      55  55 100 CALM      29.82S
GWINNER        PTSUNNY   63  61  94 W10G18    29.91R
SHEYENNE NWR     N/A     61  61 100 CALM      29.95S
ROLLA          FAIR      59  59 100 SW7       29.88R
 ***** THE ABOVE OBSERVATIONS ARE NON NWS ARE NOT QUALITY
       CONTROLLED AND MAY MIS-REPORT RAIN FOR SNOW...
$$

  *****  WEATHER ACROSS NORTHERN MINNESOTA  *****

CITY           SKY/WX    TMP DP  RH WIND       PRES   REMARKS
FLAG ISLAND    FAIR      63  55  77 CALM      29.80S
WARROAD        FAIR      55  52  88 CALM      29.83R
ROSEAU         HAZE      54  48  82 CALM      29.83R VSB 1/2
HALLOCK        FAIR      52  52 100 CALM      29.82S
THF RVR FALLS  FAIR      56  54  93 CALM      29.86R
BAUDETTE       FAIR      54  54 100 SW3       29.82R FOG
WASKISH        FAIR      54  54 100 W5        29.84
CROOKSTON      FAIR      55  54  94 S3        29.85S
STEPHEN NDAWN    N/A     55  54  94 S3          N/A
GREENBUSH NDAW   N/A     54  54 100 S3          N/A
$$
  *****  WEATHER ACROSS CENTRAL AND WEST MINNESOTA  *****

CITY           SKY/WX    TMP DP  RH WIND       PRES   REMARKS
FOSSTON        FAIR      54  54 100 S5        29.87S FOG
BEMIDJI        FAIR      51  50  97 CALM      29.86S
PARK RAPIDS    FAIR      56  54  93 CALM      29.87R
ELBOW LAKE     PTSUNNY   60  59  99 SW3       29.89S
WADENA         FAIR      57  57 100 CALM      29.87F FOG
DETROIT LAKES  FAIR      61  59  94 CALM      29.89S
MOORHEAD       FAIR      59  57  94 S5        29.87R
FERGUS FALLS   MOCLDY    61  61 100 CALM      29.88R
MORRIS MN      FAIR      61  61 100 CALM      29.87F
STAPLES        FAIR      55  55 100 CALM      29.88R
$$
  *****  WEATHER ELSEWHERE ACROSS MINNESOTA  *****

CITY           SKY/WX    TMP DP  RH WIND       PRES   REMARKS
DULUTH         CLOUDY    58  57  97 NW6       29.80R
INTRNTL FALLS  FAIR      49  47  93 CALM      29.82R FOG
ELY            CLOUDY    57  57 100 CALM      29.79S
CLOQUET        FAIR      55  54  94 W7        29.83R
WHEATON        FAIR      61  57  88 S3        29.88F
BRAINERD       FAIR      54  54 100 S3        29.87R
HIBBING        FAIR      49  48  97 W3        29.83R FOG
ALEXANDRIA     FAIR      61  59  93 SW5       29.90S
SAINT CLOUD    FAIR      56  56 100 CALM      29.87S
MINNEAPOLIS    FAIR      62  58  86 NW3       29.86S
$$

  *****  WEATHER ACROSS SOUTH DAKOTA  *****

CITY           SKY/WX    TMP DP  RH WIND       PRES   REMARKS
SIOUX FALLS    LGT RAIN  64  63  96 E8        29.88F
BROOKINGS      MOCLDY    63  55  75 S14       29.87F
WATERTOWN      FAIR      62  57  83 CALM      29.87F
HURON          FAIR      62  58  86 SW3       29.91R
SISSETON         N/A     62  60  93 CALM      29.86F
ABERDEEN       LGT RAIN  65  57  75 S17       29.82F
MITCHELL       MOCLDY    64  60  87 S6        29.88R
PIERRE         FAIR      63  58  83 S8        29.88F
MOBRIDGE       FAIR      66  59  78 S8        29.86S
RAPID CITY     FAIR      61  47  59 W9        30.00S
$$

  *****  SOME WEATHER IN NEARBY STATES *****

CITY           SKY/WX    TMP DP  RH WIND       PRES   REMARKS
GLASGOW MT     FAIR      59  44  57 E8        29.96S
GREAT FALLS MT FAIR      58  37  45 SW9       30.05R
CHEYENNE WY    FAIR      55  44  66 N6        30.22S
SCOTTSBLUFF NE FAIR      56  50  80 N6        30.10S
OMAHA NE       MOCLDY    67  61  81 SE6       29.91F
DES MOINES IA  FAIR      64  60  87 CALM      29.90F
DAVENPORT IA   FAIR      63  61  93 W7        29.87R
CHICAGO IL     FAIR      70  61  73 W12       29.77R
EAU CLAIRE WI  FAIR      62  58  86 W9        29.81R
LA CROSSE WI   CLOUDY    69  63  81 NW8       29.82R
$$

  *****  SOME NATIONAL WEATHER *****

CITY           SKY/WX    TMP DP  RH WIND       PRES   REMARKS
LA GUARDIA NY  CLOUDY    76  74  93 S9        29.90F
RALEIGH NC     FAIR      77  74  90 S5        29.93F
ATLANTA GA     FAIR      77  71  82 W8        30.00F
NEW ORLEANS LA FAIR      78  77  96 W3        30.02F
OKLAHOMA CITY  FAIR      73  71  93 SE8       29.99F
ALBUQUERQUE NM FAIR      72  38  29 SE6       30.17S
SALT LAKE CITY FAIR      70  45  40 CALM      30.10F
LOS ANGELES CA FAIR      65  62  90 W7        29.99S
BOISE ID       FAIR      67  38  34 SE5       30.05S
SEATTLE WA     FAIR      61  54  77 CALM      30.16S
$$

*** WEATHER ACROSS MANITOBA...SASKATCHEWAN AND ONTARIO ***
                ***ONTARIO***

CITY           SKY/WX    TMP DP  RH WIND       PRES   REMARKS
GERALDTON      DRIZZLE   55  55 100 NE9G17    29.69F FOG
THUNDER BAY    CLOUDY    61  57  88 NW3       29.68F
SIOUX LOOKOUT  CLEAR     45  45 100 CALM      29.80S
TORONTO        PTCLDY    70  68  94 SW5       29.68S
BIG TROUT LK   CLOUDY    64  57  77 S10G17    29.75S
PICKLE LAKE    NOT AVBL
DRYDEN         CLEAR     55  55 100 VRB2      29.80F
KENORA         CLEAR     61  57  88 SW3       29.81F
$$
                *** MANITOBA***

CITY           SKY/WX    TMP DP  RH WIND       PRES   REMARKS
BRANDON        MOCLDY    52  50  93 W7        29.84F
DAUPHIN        CLEAR     57  52  82 W9        29.82R
ISLAND LAKE    PTCLDY    61  57  88 SW6       29.74S
PILOT MOUND      N/A     55  52  88 SW3         N/A
THE PAS        MOCLDY    61  55  82 W3        29.75S
THOMPSON       PTCLDY    55  52  88 W6        29.68S
WINNIPEG       PTCLDY    57  52  82 SW5       29.80S
LYNN LAKE      CLOUDY    57  50  77 MISG      29.67R
CHURCHILL      MOCLDY    55  54  94 S6        29.61R
GILLAM         CLEAR     59  50  72 S7        29.66S
$$
                ***SASKATCHEWAN***

CITY           SKY/WX    TMP DP  RH WIND       PRES   REMARKS
ESTEVAN        MOCLDY    55  54  94 NW3       29.91S
KINDERSLEY     MOCLDY    52  48  87 NE3       29.95F
LLOYDMINSTER   CLEAR     52  48  87 SW8       29.91S
PRINCE ALBERT  CLEAR     52  50  93 W5        29.88S
REGINA         CLEAR     50  45  81 W5        29.92S
YORKTON        CLEAR     54  52  94 W3        29.87R
N. BATTLEFORD  CLEAR     48  46  93 CALM      29.93S
LA RONGE       CLEAR     59  54  82 W3        29.79F
SASKATOON      CLEAR     50  48  93 SW5       29.92F
SWIFT CURRENT  CLEAR     52  43  71 SW7       29.97F
$$
NOTE: THESE ARE AUTOMATED STATIONS WITH LIMITED QUALITY CONTROL
      "FAIR" INDICATES FEW OR NO CLOUDS BELOW 12,000 FEET WITH NO
      SIGNIFICANT WEATHER AND/OR OBSTRUCTIONS TO VISIBILITY.
      SKY/WX - SKY CONDITION AND SIGNIFICANT WEATHER.
      TMP - AIR TEMPERATURE.    DP   - DEWPOINT TEMPERATURE.
      RH  - RELATIVE HUMIDITY.  PRES - PRESSURE.
      HX  - HEAT INDEX.         WCI  - WIND CHILL INDEX.
$



USA.gov is the U.S. government's official web portal to all federal, state and local government web resources and services.